Location: Dessau
(51.7984°N, 12.2168°E)
Time: 09:12:52
(UTC+01:00)

ISS - Pass Details

Date: 16 November 2017
Orbit: 402 x 407 km, 51.6° (Epoch: 21 November)

Event Time Altitude Azimuth Distance (km) Brightness Sun altitude
Exits shadow 05:38:09 17° 205° (SSW) 1,098 -1.8 -17.4°
Drops below altitude 10° 05:39:57 10° 172° (S) 1,450 -0.8 -17.1°
Sets 05:42:27 0° 152° (SSE) 2,305 0.5 -16.7°
